Time,TemperatureF,DewpointF,PressureIn,WindDirection,WindDirectionDegrees,WindSpeedMPH,WindSpeedGustMPH,Humidity,HourlyPrecipIn,Conditions,Clouds,dailyrainin,SoftwareType,DateUTC
2013-05-13 00:00:00,51.2,41.4,30.13,SSE,156,11.0,30.0,69,0.00,,,0.00,Wunderground v.1.15,2013-05-13 05:00:00,
2013-05-13 00:05:00,50.9,41.1,30.13,SSE,157,11.0,30.0,69,0.00,,,0.00,Wunderground v.1.15,2013-05-13 05:05:00,
2013-05-13 00:10:00,50.8,41.4,30.12,SSE,153,11.0,30.0,70,0.00,,,0.00,Wunderground v.1.15,2013-05-13 05:10:00,
2013-05-13 00:20:00,51.2,41.7,30.13,SSE,157,11.0,11.0,70,0.00,,,0.00,Wunderground v.1.15,2013-05-13 05:20:00,
2013-05-13 00:25:00,51.3,41.8,30.13,SSE,155,10.0,12.0,70,0.00,,,0.00,Wunderground v.1.15,2013-05-13 05:25:00,
2013-05-13 00:30:00,51.5,41.7,30.13,SSE,157,11.0,30.0,69,0.00,,,0.00,Wunderground v.1.15,2013-05-13 05:30:00,
2013-05-13 00:35:00,51.6,41.8,30.13,SSE,157,11.0,30.0,69,0.00,,,0.00,Wunderground v.1.15,2013-05-13 05:35:00,
2013-05-13 00:45:00,51.7,41.9,30.13,SSE,158,11.0,30.0,69,0.00,,,0.00,Wunderground v.1.15,2013-05-13 05:45:00,
2013-05-13 00:50:00,51.6,41.8,30.13,SSE,160,11.0,11.0,69,0.00,,,0.00,Wunderground v.1.15,2013-05-13 05:50:00,
2013-05-13 00:55:00,51.5,42.0,30.13,SSE,155,11.0,30.0,70,0.00,,,0.00,Wunderground v.1.15,2013-05-13 05:55:00,
2013-05-13 01:00:00,51.4,41.9,30.13,SSE,156,11.0,30.0,70,0.00,,,0.00,Wunderground v.1.15,2013-05-13 06:00:00,
2013-05-13 01:05:00,51.2,41.7,30.12,SSE,158,11.0,30.0,70,0.00,,,0.00,Wunderground v.1.15,2013-05-13 06:05:00,
2013-05-13 01:15:00,51.1,41.7,30.12,SSE,159,11.0,30.0,70,0.00,,,0.00,Wunderground v.1.15,2013-05-13 06:15:00,
2013-05-13 01:20:00,51.4,41.9,30.12,SSE,159,11.0,11.0,70,0.00,,,0.00,Wunderground v.1.15,2013-05-13 06:20:00,
2013-05-13 01:25:00,51.4,41.9,30.12,SSE,156,11.0,13.0,70,0.00,,,0.00,Wunderground v.1.15,2013-05-13 06:25:00,
2013-05-13 01:30:00,51.5,42.0,30.12,SSE,157,11.0,30.0,70,0.00,,,0.00,Wunderground v.1.15,2013-05-13 06:30:00,
2013-05-13 01:40:00,51.4,42.3,30.11,SSE,159,11.0,30.0,71,0.00,,,0.00,Wunderground v.1.15,2013-05-13 06:40:00,
2013-05-13 01:45:00,51.2,42.1,30.11,SSE,157,12.0,30.0,71,0.00,,,0.00,Wunderground v.1.15,2013-05-13 06:45:00,
2013-05-13 01:50:00,51.2,42.1,30.11,SSE,157,12.0,30.0,71,0.00,,,0.00,Wunderground v.1.15,2013-05-13 06:50:00,
2013-05-13 01:55:00,50.9,42.2,30.11,SSE,162,11.0,30.0,72,0.00,,,0.00,Wunderground v.1.15,2013-05-13 06:55:00,
2013-05-13 02:00:00,50.8,42.1,30.11,SSE,163,11.0,11.0,72,0.00,,,0.00,Wunderground v.1.15,2013-05-13 07:00:00,
2013-05-13 02:10:00,50.5,42.2,30.11,SSE,162,10.0,30.0,73,0.00,,,0.00,Wunderground v.1.15,2013-05-13 07:10:00,
2013-05-13 02:15:00,50.6,42.3,30.11,SSE,161,11.0,30.0,73,0.00,,,0.00,Wunderground v.1.15,2013-05-13 07:15:00,
2013-05-13 02:20:00,50.5,42.2,30.11,SSE,162,12.0,12.0,73,0.00,,,0.00,Wunderground v.1.15,2013-05-13 07:20:00,
2013-05-13 02:25:00,50.5,42.5,30.10,SSE,155,12.0,13.0,74,0.00,,,0.00,Wunderground v.1.15,2013-05-13 07:25:00,
2013-05-13 02:30:00,50.5,42.5,30.10,SSE,151,13.0,30.0,74,0.00,,,0.00,Wunderground v.1.15,2013-05-13 07:30:00,
2013-05-13 02:40:00,50.5,42.5,30.10,SSE,153,13.0,30.0,74,0.00,,,0.00,Wunderground v.1.15,2013-05-13 07:40:00,
2013-05-13 02:45:00,50.6,42.6,30.10,SSE,158,13.0,30.0,74,0.00,,,0.00,Wunderground v.1.15,2013-05-13 07:45:00,
2013-05-13 02:50:00,50.4,42.4,30.10,SSE,162,13.0,13.0,74,0.00,,,0.00,Wunderground v.1.15,2013-05-13 07:50:00,
2013-05-13 02:55:00,50.2,42.2,30.10,SSE,156,13.0,30.0,74,0.00,,,0.00,Wunderground v.1.15,2013-05-13 07:55:00,
2013-05-13 03:05:00,49.7,42.4,30.10,SSE,155,12.0,30.0,76,0.00,,,0.00,Wunderground v.1.15,2013-05-13 08:05:00,
2013-05-13 03:10:00,49.5,42.2,30.10,SSE,153,12.0,30.0,76,0.00,,,0.00,Wunderground v.1.15,2013-05-13 08:10:00,
2013-05-13 03:15:00,49.4,42.1,30.10,SSE,157,11.0,30.0,76,0.00,,,0.00,Wunderground v.1.15,2013-05-13 08:15:00,
2013-05-13 03:20:00,49.2,42.3,30.10,SSE,159,11.0,30.0,77,0.00,,,0.00,Wunderground v.1.15,2013-05-13 08:20:00,
2013-05-13 03:30:00,48.8,41.9,30.09,SSE,161,10.0,10.0,77,0.00,,,0.00,Wunderground v.1.15,2013-05-13 08:30:00,
2013-05-13 03:35:00,48.7,42.1,30.09,SSE,158,10.0,30.0,78,0.00,,,0.00,Wunderground v.1.15,2013-05-13 08:35:00,
2013-05-13 03:40:00,48.5,42.0,30.09,SSE,156,10.0,30.0,78,0.00,,,0.00,Wunderground v.1.15,2013-05-13 08:40:00,
2013-05-13 03:45:00,48.5,42.0,30.09,SSE,155,10.0,30.0,78,0.00,,,0.00,Wunderground v.1.15,2013-05-13 08:45:00,
2013-05-13 03:50:00,48.2,42.0,30.09,SSE,152,10.0,10.0,79,0.00,,,0.00,Wunderground v.1.15,2013-05-13 08:50:00,
2013-05-13 04:00:00,48.0,41.8,30.09,SSE,150,8.0,30.0,79,0.00,,,0.00,Wunderground v.1.15,2013-05-13 09:00:00,
2013-05-13 04:05:00,48.0,41.8,30.09,SE,144,8.0,30.0,79,0.00,,,0.00,Wunderground v.1.15,2013-05-13 09:05:00,
2013-05-13 04:10:00,47.9,42.0,30.09,SE,146,9.0,9.0,80,0.00,,,0.00,Wunderground v.1.15,2013-05-13 09:10:00,
2013-05-13 04:20:00,47.8,41.9,30.09,SSE,150,7.0,7.0,80,0.00,,,0.00,Wunderground v.1.15,2013-05-13 09:20:00,
2013-05-13 04:25:00,47.5,41.6,30.09,SSE,150,7.0,30.0,80,0.00,,,0.00,Wunderground v.1.15,2013-05-13 09:25:00,
2013-05-13 04:30:00,47.4,41.5,30.08,SSE,151,7.0,30.0,80,0.00,,,0.00,Wunderground v.1.15,2013-05-13 09:30:00,
2013-05-13 04:35:00,47.2,41.7,30.09,SSE,153,7.0,30.0,81,0.00,,,0.00,Wunderground v.1.15,2013-05-13 09:35:00,
2013-05-13 04:45:00,47.2,41.7,30.08,SSE,158,6.0,7.0,81,0.00,,,0.00,Wunderground v.1.15,2013-05-13 09:45:00,
2013-05-13 04:50:00,47.2,42.0,30.08,SSE,161,6.0,30.0,82,0.00,,,0.00,Wunderground v.1.15,2013-05-13 09:50:00,
2013-05-13 04:55:00,47.1,41.9,30.08,SSE,159,8.0,30.0,82,0.00,,,0.00,Wunderground v.1.15,2013-05-13 09:55:00,
2013-05-13 05:00:00,47.0,41.8,30.08,SSE,163,8.0,8.0,82,0.00,,,0.00,Wunderground v.1.15,2013-05-13 10:00:00,
2013-05-13 05:05:00,46.9,41.7,30.08,SSE,163,6.0,30.0,82,0.00,,,0.00,Wunderground v.1.15,2013-05-13 10:05:00,
2013-05-13 05:15:00,46.8,41.9,30.07,SSE,158,8.0,30.0,83,0.00,,,0.00,Wunderground v.1.15,2013-05-13 10:15:00,
2013-05-13 05:25:00,46.9,42.0,30.07,SSE,149,9.0,30.0,83,0.00,,,0.00,Wunderground v.1.15,2013-05-13 10:25:00,
2013-05-13 05:30:00,46.7,41.8,30.07,SSE,150,10.0,10.0,83,0.00,,,0.00,Wunderground v.1.15,2013-05-13 10:30:00,
2013-05-13 05:35:00,46.6,41.7,30.07,SSE,150,10.0,30.0,83,0.00,,,0.00,Wunderground v.1.15,2013-05-13 10:35:00,
2013-05-13 05:40:00,46.5,41.6,30.07,SSE,155,10.0,10.0,83,0.00,,,0.00,Wunderground v.1.15,2013-05-13 10:40:00,
2013-05-13 05:45:00,46.4,41.8,30.07,SSE,159,10.0,12.0,84,0.00,,,0.00,Wunderground v.1.15,2013-05-13 10:45:00,
2013-05-13 05:55:00,46.3,41.7,30.07,SSE,163,10.0,30.0,84,0.00,,,0.00,Wunderground v.1.15,2013-05-13 10:55:00,
2013-05-13 06:00:00,46.2,41.6,30.07,SSE,163,8.0,8.0,84,0.00,,,0.00,Wunderground v.1.15,2013-05-13 11:00:00,
2013-05-13 06:05:00,46.0,41.4,30.07,SSE,168,8.0,30.0,84,0.00,,,0.00,Wunderground v.1.15,2013-05-13 11:05:00,
2013-05-13 06:10:00,45.9,41.3,30.07,SSE,168,7.0,30.0,84,0.00,,,0.00,Wunderground v.1.15,2013-05-13 11:10:00,
2013-05-13 06:15:00,45.7,41.4,30.07,South,170,7.0,30.0,85,0.00,,,0.00,Wunderground v.1.15,2013-05-13 11:15:00,
2013-05-13 06:25:00,45.5,41.6,30.07,South,171,5.0,30.0,86,0.00,,,0.00,Wunderground v.1.15,2013-05-13 11:25:00,
2013-05-13 06:30:00,45.6,41.7,30.07,South,171,5.0,5.0,86,0.00,,,0.00,Wunderground v.1.15,2013-05-13 11:30:00,
2013-05-13 06:35:00,45.6,41.7,30.08,SSE,167,5.0,6.0,86,0.00,,,0.00,Wunderground v.1.15,2013-05-13 11:35:00,
2013-05-13 06:45:00,45.7,41.8,30.07,SSE,166,6.0,30.0,86,0.00,,,0.00,Wunderground v.1.15,2013-05-13 11:45:00,
2013-05-13 06:50:00,45.8,41.9,30.07,SSE,164,6.0,30.0,86,0.00,,,0.00,Wunderground v.1.15,2013-05-13 11:50:00,
2013-05-13 06:55:00,46.0,42.0,30.07,SSE,164,6.0,30.0,86,0.00,,,0.00,Wunderground v.1.15,2013-05-13 11:55:00,
2013-05-13 07:00:00,46.3,42.3,30.08,SSE,163,7.0,7.0,86,0.00,,,0.00,Wunderground v.1.15,2013-05-13 12:00:00,
2013-05-13 07:05:00,46.4,42.4,30.08,SSE,163,6.0,30.0,86,0.00,,,0.00,Wunderground v.1.15,2013-05-13 12:05:00,
2013-05-13 07:15:00,46.8,42.5,30.07,SSE,159,7.0,30.0,85,0.00,,,0.00,Wunderground v.1.15,2013-05-13 12:15:00,
2013-05-13 07:20:00,47.0,42.7,30.07,SSE,156,7.0,7.0,85,0.00,,,0.00,Wunderground v.1.15,2013-05-13 12:20:00,
2013-05-13 07:25:00,47.3,42.7,30.07,SSE,154,8.0,11.0,84,0.00,,,0.00,Wunderground v.1.15,2013-05-13 12:25:00,
2013-05-13 07:30:00,47.6,43.0,30.08,SSE,161,9.0,9.0,84,0.00,,,0.00,Wunderground v.1.15,2013-05-13 12:30:00,
2013-05-13 07:40:00,48.1,43.2,30.07,SSE,163,10.0,10.0,83,0.00,,,0.00,Wunderground v.1.15,2013-05-13 12:40:00,
2013-05-13 07:45:00,48.5,43.6,30.07,SSE,167,9.0,30.0,83,0.00,,,0.00,Wunderground v.1.15,2013-05-13 12:45:00,
2013-05-13 07:50:00,48.6,43.4,30.08,SSE,157,10.0,30.0,82,0.00,,,0.00,Wunderground v.1.15,2013-05-13 12:50:00,
2013-05-13 07:55:00,48.9,43.6,30.08,SSE,163,10.0,30.0,82,0.00,,,0.00,Wunderground v.1.15,2013-05-13 12:55:00,
2013-05-13 08:05:00,49.9,44.0,30.08,South,169,8.0,30.0,80,0.00,,,0.00,Wunderground v.1.15,2013-05-13 13:05:00,
2013-05-13 08:10:00,50.4,44.5,30.08,South,169,9.0,30.0,80,0.00,,,0.00,Wunderground v.1.15,2013-05-13 13:10:00,
2013-05-13 08:15:00,50.9,44.6,30.07,SSE,164,9.0,30.0,79,0.00,,,0.00,Wunderground v.1.15,2013-05-13 13:15:00,
2013-05-13 08:20:00,51.5,44.9,30.07,SSE,156,10.0,30.0,78,0.00,,,0.00,Wunderground v.1.15,2013-05-13 13:20:00,
2013-05-13 08:30:00,52.6,45.6,30.07,SSE,166,10.0,10.0,77,0.00,,,0.00,Wunderground v.1.15,2013-05-13 13:30:00,
2013-05-13 08:35:00,53.4,45.7,30.07,SSE,161,10.0,30.0,75,0.00,,,0.00,Wunderground v.1.15,2013-05-13 13:35:00,
2013-05-13 08:40:00,53.4,45.0,30.07,SE,145,11.0,30.0,73,0.00,,,0.00,Wunderground v.1.15,2013-05-13 13:40:00,
2013-05-13 08:50:00,54.4,45.6,30.07,SSE,157,12.0,12.0,72,0.00,,,0.00,Wunderground v.1.15,2013-05-13 13:50:00,
2013-05-13 08:55:00,54.6,45.8,30.08,SSE,149,11.0,13.0,72,0.00,,,0.00,Wunderground v.1.15,2013-05-13 13:55:00,
2013-05-13 09:00:00,55.3,46.4,30.07,South,169,11.0,11.0,72,0.00,,,0.00,Wunderground v.1.15,2013-05-13 14:00:00,
2013-05-13 09:05:00,56.3,45.9,30.07,SSE,154,11.0,13.0,68,0.00,,,0.00,Wunderground v.1.15,2013-05-13 14:05:00,
2013-05-13 09:10:00,56.0,46.0,30.07,SSE,155,12.0,30.0,69,0.00,,,0.00,Wunderground v.1.15,2013-05-13 14:10:00,
2013-05-13 09:20:00,57.0,46.5,30.06,SSE,162,11.0,11.0,68,0.00,,,0.00,Wunderground v.1.15,2013-05-13 14:20:00,
2013-05-13 09:25:00,57.3,46.8,30.06,SSE,164,12.0,12.0,68,0.00,,,0.00,Wunderground v.1.15,2013-05-13 14:25:00,
2013-05-13 09:30:00,58.4,47.1,30.06,SE,143,13.0,30.0,66,0.00,,,0.00,Wunderground v.1.15,2013-05-13 14:30:00,
2013-05-13 09:35:00,58.5,47.2,30.06,SSE,157,13.0,30.0,66,0.00,,,0.00,Wunderground v.1.15,2013-05-13 14:35:00,
2013-05-13 09:45:00,59.7,47.5,30.05,SSE,162,13.0,30.0,64,0.00,,,0.00,Wunderground v.1.15,2013-05-13 14:45:00,
2013-05-13 09:50:00,60.2,48.0,30.05,SSE,153,13.0,30.0,64,0.00,,,0.00,Wunderground v.1.15,2013-05-13 14:50:00,
2013-05-13 09:55:00,60.7,48.0,30.05,SSE,168,13.0,30.0,63,0.00,,,0.00,Wunderground v.1.15,2013-05-13 14:55:00,
2013-05-13 10:05:00,61.9,48.3,30.05,SSE,165,12.0,30.0,61,0.00,,,0.00,Wunderground v.1.15,2013-05-13 15:05:00,
2013-05-13 10:10:00,62.2,48.6,30.06,SSE,155,11.0,30.0,61,0.00,,,0.00,Wunderground v.1.15,2013-05-13 15:10:00,
2013-05-13 10:15:00,63.0,48.9,30.05,SSE,153,11.0,30.0,60,0.00,,,0.00,Wunderground v.1.15,2013-05-13 15:15:00,
2013-05-13 10:20:00,63.4,48.4,30.05,SSE,162,11.0,11.0,58,0.00,,,0.00,Wunderground v.1.15,2013-05-13 15:20:00,
2013-05-13 10:25:00,64.3,49.2,30.05,SSE,167,9.0,30.0,58,0.00,,,0.00,Wunderground v.1.15,2013-05-13 15:25:00,
2013-05-13 10:35:00,64.5,49.8,30.05,South,172,10.0,30.0,59,0.00,,,0.00,Wunderground v.1.15,2013-05-13 15:35:00,
2013-05-13 10:40:00,64.8,49.2,30.05,South,180,10.0,10.0,57,0.00,,,0.00,Wunderground v.1.15,2013-05-13 15:40:00,
2013-05-13 10:45:00,65.6,50.4,30.05,South,175,10.0,30.0,58,0.00,,,0.00,Wunderground v.1.15,2013-05-13 15:45:00,
2013-05-13 10:55:00,66.6,48.9,30.04,SSE,165,11.0,30.0,53,0.00,,,0.00,Wunderground v.1.15,2013-05-13 15:55:00,
2013-05-13 11:00:00,67.5,49.8,30.04,SSE,163,11.0,11.0,53,0.00,,,0.00,Wunderground v.1.15,2013-05-13 16:00:00,
2013-05-13 11:05:00,67.9,50.1,30.04,South,169,11.0,12.0,53,0.00,,,0.00,Wunderground v.1.15,2013-05-13 16:05:00,
2013-05-13 11:10:00,68.7,50.4,30.05,SSE,161,11.0,30.0,52,0.00,,,0.00,Wunderground v.1.15,2013-05-13 16:10:00,
2013-05-13 11:20:00,69.8,49.8,30.04,SSE,156,12.0,30.0,49,0.00,,,0.00,Wunderground v.1.15,2013-05-13 16:20:00,
2013-05-13 11:25:00,70.4,49.8,30.04,SSE,160,12.0,30.0,48,0.00,,,0.00,Wunderground v.1.15,2013-05-13 16:25:00,
2013-05-13 11:30:00,70.9,50.2,30.04,SSE,163,12.0,30.0,48,0.00,,,0.00,Wunderground v.1.15,2013-05-13 16:30:00,
2013-05-13 11:35:00,71.6,49.7,30.04,South,171,13.0,30.0,46,0.00,,,0.00,Wunderground v.1.15,2013-05-13 16:35:00,
2013-05-13 11:40:00,71.9,49.4,30.04,SSE,161,13.0,30.0,45,0.00,,,0.00,Wunderground v.1.15,2013-05-13 16:40:00,
2013-05-13 11:50:00,73.1,49.9,30.03,South,178,12.0,12.0,44,0.00,,,0.00,Wunderground v.1.15,2013-05-13 16:50:00,
2013-05-13 11:55:00,73.3,48.2,30.03,SSE,159,13.0,16.0,41,0.00,,,0.00,Wunderground v.1.15,2013-05-13 16:55:00,
2013-05-13 12:00:00,74.0,49.4,30.03,SSE,166,14.0,30.0,42,0.00,,,0.00,Wunderground v.1.15,2013-05-13 17:00:00,
2013-05-13 12:10:00,75.5,48.8,30.02,South,175,13.0,13.0,39,0.00,,,0.00,Wunderground v.1.15,2013-05-13 17:10:00,
2013-05-13 12:15:00,75.5,48.8,30.02,South,173,14.0,14.0,39,0.00,,,0.00,Wunderground v.1.15,2013-05-13 17:15:00,
2013-05-13 12:20:00,76.1,47.9,30.02,SSE,160,14.0,30.0,37,0.00,,,0.00,Wunderground v.1.15,2013-05-13 17:20:00,
2013-05-13 12:25:00,76.5,46.8,30.01,South,178,14.0,30.0,35,0.00,,,0.00,Wunderground v.1.15,2013-05-13 17:25:00,
2013-05-13 12:30:00,76.8,46.3,30.01,South,178,15.0,15.0,34,0.00,,,0.00,Wunderground v.1.15,2013-05-13 17:30:00,
2013-05-13 12:40:00,77.3,45.1,30.01,South,171,14.0,14.0,32,0.00,,,0.00,Wunderground v.1.15,2013-05-13 17:40:00,
2013-05-13 12:45:00,77.3,45.1,30.01,South,175,15.0,15.0,32,0.00,,,0.00,Wunderground v.1.15,2013-05-13 17:45:00,
2013-05-13 12:50:00,78.7,44.7,30.01,SSE,165,16.0,30.0,30,0.00,,,0.00,Wunderground v.1.15,2013-05-13 17:50:00,
2013-05-13 12:55:00,78.4,44.4,30.01,South,178,16.0,30.0,30,0.00,,,0.00,Wunderground v.1.15,2013-05-13 17:55:00,
2013-05-13 13:05:00,79.1,42.2,30.00,South,184,16.0,30.0,27,0.00,,,0.00,Wunderground v.1.15,2013-05-13 18:05:00,
2013-05-13 13:10:00,79.1,41.3,30.00,SSE,167,16.0,30.0,26,0.00,,,0.00,Wunderground v.1.15,2013-05-13 18:10:00,
2013-05-13 13:15:00,79.3,43.4,30.00,South,178,17.0,30.0,28,0.00,,,0.00,Wunderground v.1.15,2013-05-13 18:15:00,
2013-05-13 13:20:00,79.2,43.3,30.00,South,175,17.0,17.0,28,0.00,,,0.00,Wunderground v.1.15,2013-05-13 18:20:00,
2013-05-13 13:25:00,79.7,41.8,29.99,South,188,16.0,19.0,26,0.00,,,0.00,Wunderground v.1.15,2013-05-13 18:25:00,
2013-05-13 13:35:00,80.1,42.1,29.99,South,188,17.0,17.0,26,0.00,,,0.00,Wunderground v.1.15,2013-05-13 18:35:00,
2013-05-13 13:40:00,80.0,43.0,29.99,SSE,166,16.0,30.0,27,0.00,,,0.00,Wunderground v.1.15,2013-05-13 18:40:00,
2013-05-13 13:45:00,80.5,44.4,29.99,SSW,199,16.0,30.0,28,0.00,,,0.00,Wunderground v.1.15,2013-05-13 18:45:00,
2013-05-13 13:50:00,80.5,43.4,29.99,South,184,17.0,17.0,27,0.00,,,0.00,Wunderground v.1.15,2013-05-13 18:50:00,
2013-05-13 13:55:00,80.5,44.4,29.98,South,177,18.0,18.0,28,0.00,,,0.00,Wunderground v.1.15,2013-05-13 18:55:00,
2013-05-13 14:05:00,81.3,44.1,29.98,South,175,18.0,30.0,27,0.00,,,0.00,Wunderground v.1.15,2013-05-13 19:05:00,
2013-05-13 14:10:00,81.5,44.3,29.98,South,178,19.0,19.0,27,0.00,,,0.00,Wunderground v.1.15,2013-05-13 19:10:00,
2013-05-13 14:15:00,81.9,44.6,29.97,South,169,17.0,30.0,27,0.00,,,0.00,Wunderground v.1.15,2013-05-13 19:15:00,
2013-05-13 14:25:00,82.0,45.7,29.97,SSE,165,18.0,30.0,28,0.00,,,0.00,Wunderground v.1.15,2013-05-13 19:25:00,
2013-05-13 14:30:00,81.9,45.6,29.97,North,360,17.0,17.0,28,0.00,,,0.00,Wunderground v.1.15,2013-05-13 19:30:00,
2013-05-13 14:35:00,82.6,44.2,29.97,SSW,207,19.0,19.0,26,0.00,,,0.00,Wunderground v.1.15,2013-05-13 19:35:00,
2013-05-13 14:40:00,82.6,44.2,29.97,South,174,19.0,19.0,26,0.00,,,0.00,Wunderground v.1.15,2013-05-13 19:40:00,
2013-05-13 14:50:00,82.1,43.8,29.97,South,176,19.0,19.0,26,0.00,,,0.00,Wunderground v.1.15,2013-05-13 19:50:00,
2013-05-13 14:55:00,82.6,44.2,29.97,South,190,19.0,24.0,26,0.00,,,0.00,Wunderground v.1.15,2013-05-13 19:55:00,
2013-05-13 15:00:00,82.8,45.4,29.96,SW,219,20.0,20.0,27,0.00,,,0.00,Wunderground v.1.15,2013-05-13 20:00:00,
2013-05-13 15:05:00,82.7,45.3,29.96,SSW,199,20.0,29.0,27,0.00,,,0.00,Wunderground v.1.15,2013-05-13 20:05:00,
2013-05-13 15:10:00,82.5,45.1,29.96,South,174,20.0,20.0,27,0.00,,,0.00,Wunderground v.1.15,2013-05-13 20:10:00,
2013-05-13 15:20:00,83.3,43.8,29.96,SSW,211,21.0,21.0,25,0.00,,,0.00,Wunderground v.1.15,2013-05-13 20:20:00,
2013-05-13 15:25:00,83.6,44.1,29.95,SW,227,20.0,30.0,25,0.00,,,0.00,Wunderground v.1.15,2013-05-13 20:25:00,
2013-05-13 15:30:00,83.5,44.0,29.95,SSW,202,20.0,30.0,25,0.00,,,0.00,Wunderground v.1.15,2013-05-13 20:30:00,
2013-05-13 15:35:00,83.6,45.1,29.95,SW,214,20.0,30.0,26,0.00,,,0.00,Wunderground v.1.15,2013-05-13 20:35:00,
2013-05-13 15:45:00,84.0,45.4,29.95,SSW,211,19.0,30.0,26,0.00,,,0.00,Wunderground v.1.15,2013-05-13 20:45:00,
2013-05-13 15:50:00,83.9,46.3,29.94,SSW,194,18.0,30.0,27,0.00,,,0.00,Wunderground v.1.15,2013-05-13 20:50:00,
2013-05-13 15:55:00,83.9,46.3,29.94,South,184,19.0,30.0,27,0.00,,,0.00,Wunderground v.1.15,2013-05-13 20:55:00,
2013-05-13 16:00:00,83.8,47.2,29.93,SSW,202,20.0,20.0,28,0.00,,,0.00,Wunderground v.1.15,2013-05-13 21:00:00,
2013-05-13 16:05:00,83.8,47.2,29.93,SSW,197,18.0,30.0,28,0.00,,,0.00,Wunderground v.1.15,2013-05-13 21:05:00,
2013-05-13 16:15:00,83.6,48.0,29.93,SW,219,20.0,20.0,29,0.00,,,0.00,Wunderground v.1.15,2013-05-13 21:15:00,
2013-05-13 16:20:00,83.6,48.0,29.93,SSW,211,20.0,20.0,29,0.00,,,0.00,Wunderground v.1.15,2013-05-13 21:20:00,
2013-05-13 16:25:00,83.9,49.1,29.92,SW,214,19.0,30.0,30,0.00,,,0.00,Wunderground v.1.15,2013-05-13 21:25:00,
2013-05-13 16:35:00,84.1,50.2,29.92,SSW,210,19.0,19.0,31,0.00,,,0.00,Wunderground v.1.15,2013-05-13 21:35:00,
2013-05-13 16:40:00,84.3,50.4,29.92,SSW,197,20.0,20.0,31,0.00,,,0.00,Wunderground v.1.15,2013-05-13 21:40:00,
2013-05-13 16:45:00,84.3,50.4,29.92,SSW,209,19.0,21.0,31,0.00,,,0.00,Wunderground v.1.15,2013-05-13 21:45:00,
2013-05-13 16:50:00,84.1,50.2,29.91,SSW,205,20.0,20.0,31,0.00,,,0.00,Wunderground v.1.15,2013-05-13 21:50:00,
2013-05-13 16:55:00,84.1,51.1,29.91,SW,215,19.0,30.0,32,0.00,,,0.00,Wunderground v.1.15,2013-05-13 21:55:00,
2013-05-13 17:05:00,84.6,51.5,29.91,SW,216,20.0,30.0,32,0.00,,,0.00,Wunderground v.1.15,2013-05-13 22:05:00,
2013-05-13 17:10:00,84.8,51.7,29.91,South,186,20.0,20.0,32,0.00,,,0.00,Wunderground v.1.15,2013-05-13 22:10:00,
2013-05-13 17:15:00,84.7,51.6,29.90,SSW,198,19.0,21.0,32,0.00,,,0.00,Wunderground v.1.15,2013-05-13 22:15:00,
2013-05-13 17:25:00,84.9,51.7,29.90,SSW,192,20.0,30.0,32,0.00,,,0.00,Wunderground v.1.15,2013-05-13 22:25:00,
2013-05-13 17:30:00,84.3,52.1,29.90,SW,215,20.0,20.0,33,0.00,,,0.00,Wunderground v.1.15,2013-05-13 22:30:00,
2013-05-13 17:35:00,84.5,53.0,29.90,SW,216,19.0,30.0,34,0.00,,,0.00,Wunderground v.1.15,2013-05-13 22:35:00,
2013-05-13 17:40:00,84.5,53.0,29.89,SSW,203,18.0,30.0,34,0.00,,,0.00,Wunderground v.1.15,2013-05-13 22:40:00,
2013-05-13 17:50:00,84.6,53.1,29.89,SSW,210,19.0,19.0,34,0.00,,,0.00,Wunderground v.1.15,2013-05-13 22:50:00,
2013-05-13 17:55:00,84.8,53.3,29.89,SW,218,19.0,30.0,34,0.00,,,0.00,Wunderground v.1.15,2013-05-13 22:55:00,
2013-05-13 18:00:00,85.0,53.5,29.89,SSW,194,20.0,20.0,34,0.00,,,0.00,Wunderground v.1.15,2013-05-13 23:00:00,
2013-05-13 18:05:00,84.8,54.1,29.89,SSW,196,19.0,30.0,35,0.00,,,0.00,Wunderground v.1.15,2013-05-13 23:05:00,
2013-05-13 18:10:00,84.8,54.1,29.89,SSW,199,19.0,30.0,35,0.00,,,0.00,Wunderground v.1.15,2013-05-13 23:10:00,
2013-05-13 18:20:00,84.5,53.8,29.88,SSW,198,20.0,20.0,35,0.00,,,0.00,Wunderground v.1.15,2013-05-13 23:20:00,
2013-05-13 18:25:00,84.4,53.8,29.88,SSW,194,19.0,30.0,35,0.00,,,0.00,Wunderground v.1.15,2013-05-13 23:25:00,
2013-05-13 18:30:00,84.2,54.4,29.88,South,190,18.0,18.0,36,0.00,,,0.00,Wunderground v.1.15,2013-05-13 23:30:00,
2013-05-13 18:35:00,84.0,54.2,29.88,SSW,198,17.0,27.0,36,0.00,,,0.00,Wunderground v.1.15,2013-05-13 23:35:00,
2013-05-13 18:45:00,83.6,53.8,29.87,SSW,206,21.0,30.0,36,0.00,,,0.00,Wunderground v.1.15,2013-05-13 23:45:00,
2013-05-13 18:50:00,83.5,53.7,29.87,SSW,200,21.0,21.0,36,0.00,,,0.00,Wunderground v.1.15,2013-05-13 23:50:00,
2013-05-13 18:55:00,83.4,53.6,29.88,SSW,203,19.0,30.0,36,0.00,,,0.00,Wunderground v.1.15,2013-05-13 23:55:00,
2013-05-13 19:00:00,83.2,53.5,29.88,South,173,18.0,18.0,36,0.00,,,0.00,Wunderground v.1.15,2013-05-14 00:00:00,
2013-05-13 19:10:00,83.0,53.3,29.87,SSW,196,16.0,30.0,36,0.00,,,0.00,Wunderground v.1.15,2013-05-14 00:10:00,
2013-05-13 19:15:00,82.8,53.1,29.87,South,169,14.0,30.0,36,0.00,,,0.00,Wunderground v.1.15,2013-05-14 00:15:00,
2013-05-13 19:20:00,82.6,53.7,29.86,South,175,14.0,30.0,37,0.00,,,0.00,Wunderground v.1.15,2013-05-14 00:20:00,
2013-05-13 19:25:00,82.2,54.1,29.87,South,178,14.0,30.0,38,0.00,,,0.00,Wunderground v.1.15,2013-05-14 00:25:00,
2013-05-13 19:35:00,81.7,54.3,29.87,South,170,10.0,30.0,39,0.00,,,0.00,Wunderground v.1.15,2013-05-14 00:35:00,
2013-05-13 19:40:00,81.1,55.2,29.87,South,178,11.0,30.0,41,0.00,,,0.00,Wunderground v.1.15,2013-05-14 00:40:00,
2013-05-13 19:45:00,80.8,55.6,29.87,South,176,11.0,30.0,42,0.00,,,0.00,Wunderground v.1.15,2013-05-14 00:45:00,
2013-05-13 19:50:00,80.2,55.7,29.87,South,171,10.0,10.0,43,0.00,,,0.00,Wunderground v.1.15,2013-05-14 00:50:00,
2013-05-13 19:55:00,79.7,55.9,29.86,SSE,168,9.0,12.0,44,0.00,,,0.00,Wunderground v.1.15,2013-05-14 00:55:00,
2013-05-13 20:05:00,79.0,55.8,29.87,South,172,10.0,30.0,45,0.00,,,0.00,Wunderground v.1.15,2013-05-14 01:05:00,
2013-05-13 20:10:00,78.5,55.4,29.87,South,169,9.0,9.0,45,0.00,,,0.00,Wunderground v.1.15,2013-05-14 01:10:00,
2013-05-13 20:15:00,78.1,55.6,29.87,South,172,9.0,30.0,46,0.00,,,0.00,Wunderground v.1.15,2013-05-14 01:15:00,
2013-05-13 20:20:00,77.6,55.8,29.87,South,171,8.0,8.0,47,0.00,,,0.00,Wunderground v.1.15,2013-05-14 01:20:00,
2013-05-13 20:30:00,77.2,55.4,29.87,South,174,9.0,9.0,47,0.00,,,0.00,Wunderground v.1.15,2013-05-14 01:30:00,
2013-05-13 20:35:00,76.9,55.1,29.87,South,177,10.0,10.0,47,0.00,,,0.00,Wunderground v.1.15,2013-05-14 01:35:00,
2013-05-13 20:40:00,76.5,55.3,29.87,South,175,10.0,30.0,48,0.00,,,0.00,Wunderground v.1.15,2013-05-14 01:40:00,
2013-05-13 20:45:00,76.0,55.5,29.87,South,175,10.0,30.0,49,0.00,,,0.00,Wunderground v.1.15,2013-05-14 01:45:00,
2013-05-13 20:55:00,75.1,55.2,29.87,South,175,9.0,30.0,50,0.00,,,0.00,Wunderground v.1.15,2013-05-14 01:55:00,
2013-05-13 21:00:00,74.8,54.9,29.87,South,175,9.0,30.0,50,0.00,,,0.00,Wunderground v.1.15,2013-05-14 02:00:00,
2013-05-13 21:05:00,74.6,55.3,29.87,South,172,9.0,30.0,51,0.00,,,0.00,Wunderground v.1.15,2013-05-14 02:05:00,
2013-05-13 21:10:00,74.3,55.0,29.87,South,175,9.0,9.0,51,0.00,,,0.00,Wunderground v.1.15,2013-05-14 02:10:00,
2013-05-13 21:15:00,74.0,54.7,29.87,South,175,9.0,30.0,51,0.00,,,0.00,Wunderground v.1.15,2013-05-14 02:15:00,
2013-05-13 21:25:00,73.5,54.8,29.87,South,175,10.0,10.0,52,0.00,,,0.00,Wunderground v.1.15,2013-05-14 02:25:00,
2013-05-13 21:30:00,73.4,54.7,29.87,South,175,9.0,9.0,52,0.00,,,0.00,Wunderground v.1.15,2013-05-14 02:30:00,
2013-05-13 21:35:00,73.0,54.9,29.87,South,179,9.0,30.0,53,0.00,,,0.00,Wunderground v.1.15,2013-05-14 02:35:00,
2013-05-13 21:45:00,72.4,54.8,29.87,South,180,10.0,30.0,54,0.00,,,0.00,Wunderground v.1.15,2013-05-14 02:45:00,
2013-05-13 21:50:00,72.1,54.5,29.87,South,191,10.0,30.0,54,0.00,,,0.00,Wunderground v.1.15,2013-05-14 02:50:00,
2013-05-13 21:55:00,72.0,54.9,29.87,South,181,10.0,30.0,55,0.00,,,0.00,Wunderground v.1.15,2013-05-14 02:55:00,
2013-05-13 22:00:00,71.9,54.9,29.87,South,178,10.0,10.0,55,0.00,,,0.00,Wunderground v.1.15,2013-05-14 03:00:00,
2013-05-13 22:05:00,71.6,54.6,29.88,South,177,10.0,30.0,55,0.00,,,0.00,Wunderground v.1.15,2013-05-14 03:05:00,
2013-05-13 22:15:00,70.9,54.9,29.88,South,177,9.0,30.0,57,0.00,,,0.00,Wunderground v.1.15,2013-05-14 03:15:00,
2013-05-13 22:20:00,70.7,54.7,29.87,South,184,9.0,30.0,57,0.00,,,0.00,Wunderground v.1.15,2013-05-14 03:20:00,
2013-05-13 22:25:00,70.7,54.7,29.87,South,177,10.0,30.0,57,0.00,,,0.00,Wunderground v.1.15,2013-05-14 03:25:00,
2013-05-13 22:30:00,70.6,55.1,29.87,South,179,10.0,10.0,58,0.00,,,0.00,Wunderground v.1.15,2013-05-14 03:30:00,
2013-05-13 22:40:00,70.1,55.1,29.87,South,181,11.0,11.0,59,0.00,,,0.00,Wunderground v.1.15,2013-05-14 03:40:00,
2013-05-13 22:45:00,69.9,54.9,29.87,South,186,11.0,12.0,59,0.00,,,0.00,Wunderground v.1.15,2013-05-14 03:45:00,
2013-05-13 22:50:00,69.5,55.0,29.87,SSW,192,11.0,30.0,60,0.00,,,0.00,Wunderground v.1.15,2013-05-14 03:50:00,
2013-05-13 22:55:00,69.1,55.1,29.87,South,189,11.0,30.0,61,0.00,,,0.00,Wunderground v.1.15,2013-05-14 03:55:00,
2013-05-13 23:05:00,68.2,54.7,29.87,SSW,194,12.0,14.0,62,0.00,,,0.00,Wunderground v.1.15,2013-05-14 04:05:00,
2013-05-13 23:10:00,67.9,54.8,29.87,SSW,194,12.0,30.0,63,0.00,,,0.00,Wunderground v.1.15,2013-05-14 04:10:00,
2013-05-13 23:15:00,67.8,55.2,29.87,South,191,13.0,30.0,64,0.00,,,0.00,Wunderground v.1.15,2013-05-14 04:15:00,
2013-05-13 23:20:00,67.7,55.5,29.87,SSW,192,13.0,13.0,65,0.00,,,0.00,Wunderground v.1.15,2013-05-14 04:20:00,
2013-05-13 23:30:00,67.3,55.5,29.86,South,188,13.0,30.0,66,0.00,,,0.00,Wunderground v.1.15,2013-05-14 04:30:00,
2013-05-13 23:35:00,67.2,55.9,29.86,South,187,13.0,30.0,67,0.00,,,0.00,Wunderground v.1.15,2013-05-14 04:35:00,
2013-05-13 23:40:00,67.0,55.7,29.86,South,182,12.0,12.0,67,0.00,,,0.00,Wunderground v.1.15,2013-05-14 04:40:00,
2013-05-13 23:45:00,66.7,55.4,29.86,South,186,11.0,30.0,67,0.00,,,0.00,Wunderground v.1.15,2013-05-14 04:45:00,
2013-05-13 23:55:00,65.9,55.4,29.86,South,180,10.0,30.0,69,0.00,,,0.00,Wunderground v.1.15,2013-05-14 04:55:00,